Theta_e
353 361 366 366 365 364 363 362 361 361 360 360 360 360 359 359 359 359 359 360 361 361 359 359 357 356 356 357 357 356 356 356 354 353 354 353 353 351 351 348 348 345 348
356 362 365 365 365 364 363 362 361 360 360 360 359 359 358 358 359 359 361 361 361 360 359 358 356 354 354 354 355 354 354 354 355 353 354 354 353 352 352 350 349 347 348
356 361 363 365 365 364 363 361 360 359 359 359 358 358 358 358 359 360 361 361 361 360 358 356 355 353 353 353 354 354 353 353 353 352 352 344 346 351 352 351 350 350 349
357 360 361 365 365 364 362 361 359 359 359 359 358 358 358 359 359 360 361 361 360 358 358 357 355 353 352 353 353 353 353 352 353 351 344 343 344 351 349 348 348 347 347
357 360 361 364 364 363 361 361 359 359 359 359 360 358 358 359 360 361 361 361 358 357 356 355 354 353 353 353 353 353 354 354 354 352 347 346 344 347 352 350 349 348 347
357 360 363 363 363 362 362 361 359 359 359 359 360 359 357 358 359 360 360 360 358 357 356 355 354 353 352 352 352 351 352 351 350 345 346 345 346 350 354 351 350 349 350
354 360 361 363 362 362 361 360 360 359 358 359 359 359 357 358 358 359 359 358 357 356 355 354 352 352 350 350 350 349 349 352 349 345 345 344 342 348 356 354 354 353 351
354 359 360 362 361 360 361 360 359 358 358 358 359 359 358 358 358 358 358 358 357 355 353 352 351 351 351 350 349 349 351 352 348 345 345 343 346 349 355 356 355 355 353
355 357 358 358 360 361 360 360 359 357 358 357 358 358 359 358 358 358 358 357 356 356 355 352 351 351 351 350 349 350 351 351 344 343 344 341 348 351 354 357 356 357 356
353 355 354 355 357 356 357 360 359 358 357 357 357 358 358 358 358 358 354 355 356 355 355 354 353 352 351 350 350 350 350 350 340 339 339 340 350 354 355 357 358 357 357
351 352 351 352 354 354 355 356 358 358 357 357 357 357 354 350 351 354 354 356 356 355 355 354 353 352 351 350 350 350 349 340 337 338 337 343 349 353 359 357 358 356 355
345 349 349 350 349 351 352 354 352 353 353 351 350 350 347 346 346 352 353 356 356 355 355 354 353 352 349 341 338 340 336 338 338 338 337 349 352 354 356 359 355 351 351
345 347 347 348 349 350 350 351 352 350 351 350 349 346 343 345 345 347 344 348 347 352 346 349 345 344 341 338 335 331 330 333 335 337 346 352 353 358 358 356 351 350 350
344 346 347 347 349 350 350 349 349 349 348 348 347 344 340 338 340 342 341 343 346 346 342 343 342 342 340 337 333 332 334 333 332 338 341 347 350 352 352 351 349 344 345
343 346 346 349 348 349 348 349 349 348 348 347 347 345 341 337 339 340 340 342 344 344 344 340 339 339 336 334 338 338 333 332 331 331 334 342 342 349 349 348 346 345 342
342 344 345 344 347 348 346 347 347 347 347 346 346 345 343 339 338 340 338 340 342 343 342 340 338 336 337 337 336 337 336 334 333 331 332 332 341 342 340 339 341 340 340
341 342 342 342 344 344 342 343 344 344 344 343 343 345 341 339 338 340 338 339 340 342 341 339 336 335 333 330 328 328 327 331 334 332 331 332 334 340 340 340 338 340 338
340 339 340 341 340 339 338 340 342 341 341 340 342 343 343 338 340 343 341 340 339 337 335 333 331 327 325 324 322 320 321 321 322 323 331 329 331 334 340 341 341 342 341
339 337 337 339 338 338 338 339 341 341 341 340 342 343 343 343 346 343 339 336 334 332 331 330 325 323 320 319 320 320 318 317 319 321 321 320 320 333 336 338 342 343 345
339 338 338 340 340 340 341 339 340 339 340 341 341 342 345 346 344 337 334 332 331 329 327 325 322 320 319 317 318 317 315 315 314 315 317 327 328 327 327 325 326 326 337
339 337 338 338 338 341 343 337 338 340 340 342 343 344 346 345 340 335 332 330 329 327 324 322 322 320 317 316 316 317 317 318 318 322 324 321 319 321 319 319 318 319 320
337 337 338 337 337 339 347 343 341 343 342 343 344 345 345 341 339 336 333 329 327 324 322 322 321 319 317 316 314 313 311 315 319 321 319 317 313 314 314 316 315 316 316
336 336 336 336 335 337 345 344 343 345 342 340 342 343 342 341 338 334 332 329 326 323 322 321 320 318 314 319 318 315 310 308 313 316 316 311 311 310 311 312 314 315 316
335 337 336 335 336 338 341 344 343 342 339 338 341 339 337 337 335 333 330 328 325 322 321 320 323 321 319 317 317 316 315 315 309 306 309 308 311 310 309 311 311 313 314
336 337 337 336 338 339 339 343 341 339 340 339 338 336 333 332 333 332 329 327 324 322 319 322 322 319 318 315 313 310 308 307 306 304 301 305 308 309 310 310 310 311 312
335 336 335 334 335 327 333 336 339 340 339 337 333 332 330 328 328 327 327 325 323 322 323 322 319 317 314 313 311 310 308 306 306 305 303 305 304 307 308 309 309 310 311
Wind_Speed
9 12 16 18 17 18 19 20 20 21 20 20 19 18 17 16 16 16 16 15 14 13 13 11 10 9 9 10 10 10 9 10 11 12 11 11 10 10 10 10 10 6 9
18 17 18 16 18 19 19 19 19 20 20 20 19 18 17 16 16 15 15 14 13 13 12 11 10 9 9 9 9 9 9 9 8 10 9 8 8 6 7 8 9 7 9
19 17 18 20 17 19 19 19 19 19 19 19 19 18 17 17 16 15 14 13 13 13 13 12 11 10 9 9 9 9 9 8 7 8 7 2 1 4 5 8 8 8 8
15 13 15 21 19 18 18 19 18 18 18 18 18 18 17 16 16 15 14 13 12 12 11 10 9 9 9 9 9 9 9 8 7 6 3 2 2 3 4 6 7 7 7
13 12 15 18 19 19 19 17 18 18 18 17 17 16 15 14 13 13 12 12 12 10 9 8 7 7 7 7 7 7 7 7 5 3 2 2 3 5 7 7 7 8 7
13 12 18 19 19 18 20 19 18 17 18 18 17 16 15 14 13 12 11 9 9 9 8 8 7 6 5 5 5 5 4 3 3 1 3 5 5 9 12 11 11 10 9
13 12 15 20 19 18 19 19 17 17 16 17 16 16 15 13 11 11 11 10 10 8 7 6 5 4 4 4 5 4 3 1 1 2 4 5 6 9 15 13 13 12 12
19 15 14 20 19 19 17 17 17 17 16 16 15 14 14 12 11 10 9 9 8 7 7 6 5 5 4 3 3 3 2 2 1 4 5 4 7 6 12 12 12 12 13
13 14 15 13 16 19 17 16 16 15 15 14 13 13 13 12 10 10 9 8 8 7 6 5 4 4 3 3 4 5 5 4 3 3 5 3 8 7 12 12 12 13 14
11 14 15 13 10 10 10 15 14 14 14 13 13 12 11 11 11 10 10 9 8 8 8 8 7 6 5 5 6 6 6 6 2 3 3 4 10 10 14 15 14 14 14
11 11 11 12 10 9 9 10 12 15 14 13 12 12 9 4 5 8 8 10 11 11 11 9 9 8 7 6 7 8 8 3 4 3 3 10 12 13 13 15 14 15 10
17 13 11 11 10 13 9 9 7 9 5 5 5 6 4 4 4 5 6 9 9 8 7 6 6 6 5 2 3 6 2 4 3 4 3 11 13 16 14 15 12 4 6
18 13 14 13 13 13 10 7 5 5 6 4 6 5 4 3 3 2 1 2 2 5 1 3 3 3 3 3 3 3 4 3 2 2 4 9 11 14 5 2 2 1 3
17 16 16 16 15 13 10 8 10 7 7 5 6 7 5 3 4 3 3 4 3 2 3 3 1 3 4 4 5 3 1 2 2 2 4 8 9 8 9 9 6 6 9
17 18 17 16 16 15 14 9 9 9 8 7 5 6 5 4 4 4 4 3 3 3 2 4 3 3 3 3 1 3 1 2 2 2 1 6 7 7 7 8 11 12 19
16 18 18 17 16 15 12 13 10 7 8 9 7 7 7 5 4 4 4 3 3 3 4 3 2 3 2 3 1 1 2 2 4 5 3 4 10 7 7 7 8 9 8
18 18 17 16 13 14 14 11 8 8 8 7 6 7 8 7 6 5 4 4 4 3 4 2 3 3 3 2 1 3 3 4 3 4 3 2 4 3 1 3 6 7 12
15 19 16 12 11 13 13 11 10 9 7 6 7 8 8 8 6 5 3 3 3 3 4 3 3 3 2 1 2 3 3 4 4 4 3 2 3 1 3 8 9 13 18
18 17 14 13 14 13 10 8 7 7 7 5 5 7 10 8 7 5 4 4 4 4 3 3 3 2 0 2 3 3 3 3 4 3 4 4 1 2 2 8 11 13 16
16 16 16 12 12 8 7 6 3 4 3 5 7 8 10 7 7 6 5 5 4 4 3 3 3 3 1 1 3 4 3 2 2 3 4 4 5 5 5 5 4 6 13
12 14 14 13 11 10 8 8 7 5 4 3 3 6 7 8 9 8 5 5 3 3 4 5 3 2 2 2 3 4 4 3 2 3 2 4 6 5 4 4 3 4 6
21 19 15 14 12 11 8 4 4 4 3 3 2 4 6 9 9 7 7 5 5 4 4 4 3 2 2 2 2 1 4 5 4 3 3 3 6 3 6 7 6 6 5
19 20 19 17 14 10 7 7 6 5 5 3 3 3 5 8 7 7 6 5 5 4 3 2 3 4 3 2 3 3 2 1 3 3 4 4 6 5 5 6 6 5 6
20 19 19 16 15 10 8 10 16 10 6 3 5 4 4 7 8 7 6 5 5 4 4 2 2 2 3 3 2 3 3 1 1 5 3 4 5 5 5 5 5 5 6
19 18 17 15 12 11 10 10 10 9 6 6 5 9 8 5 7 6 6 6 6 4 3 4 3 5 2 3 1 1 3 2 2 1 4 4 3 3 3 3 4 4 4
16 15 14 16 14 9 11 8 10 15 14 10 8 8 5 4 4 7 6 6 6 5 4 3 4 6 4 4 2 3 1 1 1 1 2 3 4 3 3 3 4 5 3
Wind_Direction
175 158 159 143 134 125 119 117 117 117 114 113 112 110 107 109 114 117 117 115 114 115 115 110 107 104 99 96 96 96 98 105 113 116 121 130 133 131 127 137 135 130 121
146 153 152 144 138 131 126 124 123 121 120 118 117 116 115 116 116 117 116 114 114 115 113 111 108 103 98 98 101 102 103 105 108 120 128 136 134 137 142 149 139 136 129
145 151 148 148 145 136 133 130 127 126 124 122 123 121 121 121 123 122 121 120 121 124 124 124 124 122 118 113 110 107 107 106 108 119 122 99 115 124 140 158 147 143 141
140 145 149 149 144 138 133 130 127 127 127 127 126 125 127 129 129 127 126 125 125 125 125 126 128 125 122 119 119 119 118 120 127 126 120 164 246 176 166 172 167 159 156
134 141 147 144 139 136 132 130 130 132 130 127 124 125 125 124 121 120 124 127 127 124 121 119 116 114 116 117 119 121 123 125 126 132 193 243 248 232 210 209 194 180 174
135 142 145 141 139 139 139 138 138 137 135 133 130 130 130 129 128 124 123 121 125 125 125 124 125 124 121 115 110 102 99 96 77 347 302 274 257 234 218 219 210 199 191
143 144 144 143 140 143 144 141 139 139 137 137 135 136 135 132 130 128 129 129 131 128 124 122 124 126 128 128 129 135 131 56 87 302 291 289 286 245 220 212 224 210 199
144 145 147 142 145 145 145 143 143 143 142 140 137 139 138 136 135 130 125 127 130 138 144 151 158 167 169 166 153 169 191 225 286 288 289 290 318 221 208 211 233 242 224
130 135 144 146 149 144 143 145 146 143 137 134 135 139 139 142 135 132 136 142 149 152 156 169 188 197 206 223 223 217 233 251 256 273 297 321 321 257 226 220 227 239 235
124 138 143 145 141 133 139 144 140 134 131 129 133 140 145 150 154 158 158 160 166 174 178 192 201 209 220 233 255 270 280 289 315 307 283 272 290 278 243 224 225 232 242
130 132 134 143 132 125 121 141 132 135 128 135 141 146 148 160 169 173 178 182 185 189 191 197 203 213 226 239 262 281 304 341 326 287 277 282 287 288 256 230 227 230 244
152 138 140 136 138 146 144 134 114 137 128 134 139 145 153 172 183 187 197 202 204 206 215 218 225 234 259 321 320 339 328 304 308 308 307 317 311 292 273 240 248 265 274
152 148 143 141 140 147 146 138 143 144 158 147 147 156 157 168 194 206 201 258 232 224 237 266 311 347 319 305 309 312 311 320 339 357 3 30 18 20 322 266 200 345 3
158 156 153 151 150 151 149 149 160 156 167 165 169 164 166 172 192 218 202 218 212 204 183 248 232 244 261 270 265 267 24 36 2 346 353 27 36 51 74 74 51 2 329
162 163 165 160 155 154 156 160 160 164 167 164 181 174 171 174 190 202 219 218 213 181 204 235 221 222 226 250 222 141 118 37 345 324 314 333 359 21 58 28 6 2 347
163 168 169 170 163 160 160 160 162 169 184 161 171 181 193 182 191 216 205 216 234 196 203 241 259 220 220 173 177 57 359 337 332 322 333 344 340 1 35 18 9 353 319
178 168 174 169 167 161 153 161 162 167 169 173 171 169 189 197 199 196 207 191 216 231 186 135 66 87 88 31 355 350 345 332 302 302 292 286 292 24 127 234 266 280 305
165 172 172 173 163 160 160 167 164 163 166 170 169 182 185 202 183 199 183 162 137 138 133 139 112 87 76 317 320 319 325 317 321 299 276 309 313 308 247 258 288 276 268
169 165 170 171 170 170 164 141 149 179 155 160 164 185 182 183 184 164 141 130 137 129 122 121 82 91 153 317 295 303 291 288 276 314 347 337 34 209 290 317 343 298 271
169 172 176 172 166 148 132 111 142 173 160 157 188 202 175 171 142 129 119 135 134 120 116 88 92 47 70 295 293 292 281 281 308 347 330 2 48 42 4 14 353 341 354
168 172 179 166 170 151 150 156 184 165 167 177 196 199 168 136 131 142 151 129 132 138 139 127 123 126 27 348 6 340 340 340 321 51 71 32 35 11 12 12 2 349 339
173 183 180 181 177 171 163 165 140 127 121 110 116 140 149 145 148 151 141 141 127 113 119 143 156 115 85 26 98 91 9 342 335 16 69 71 19 9 16 4 6 356 350
180 180 184 182 179 180 147 120 96 96 86 130 123 132 157 157 131 115 120 125 119 129 154 158 137 125 138 62 64 116 37 298 314 341 3 43 19 19 360 349 3 0 358
186 187 183 178 178 168 149 160 162 165 154 117 146 135 124 104 106 113 120 122 129 118 114 88 76 88 90 76 68 57 89 148 228 316 324 351 7 2 356 347 353 356 354
184 182 183 180 175 167 156 165 159 130 115 118 128 122 109 96 99 111 111 113 99 92 103 120 89 72 65 110 120 56 46 59 71 130 295 321 328 326 317 337 349 327 5
183 181 175 177 177 143 143 147 160 140 143 139 140 114 125 100 98 88 94 97 104 112 104 99 82 72 88 91 82 82 129 123 262 40 292 289 267 287 274 321 337 328 346